Weather History for Crookston, MN

Change the Weather History Date:

Wednesday, April 17, 2013

  Actual Average Record
Temperature  
Mean Temperature 32 °F -  
Max Temperature 35 °F 51 °F 71 °F (2006)
Min Temperature 30 °F 30 °F 21 °F (2011)
Degree Days  
Heating Degree Days 32    
Moisture  
Dew Point 30 °F    
Average Humidity 92    
Maximum Humidity 100    
Minimum Humidity 87    
Precipitation  
Precipitation 0.02 in - - ()
Sea Level Pressure  
Sea Level Pressure 30.28 in    
Wind  
Wind Speed 5 mph (North)    
Max Wind Speed 16 mph    
Max Gust Speed -    
Visibility 7 miles    
Events Snow    
Averages and records for this station are not official NWS values.
T = Trace of Precipitation, MM = Missing Value Source: NWS Daily Summary

Daily Weather History Graph

Daily Weather History Graph

Search for Another Location

Airport:

Trip Planner

Search our weather history database for the weather conditions in past years. The results will help you decide how hot, cold, wet, or windy it might be!

Date:

Astronomy

Apr. 17, 2013 Rise Set
Actual Time 6:32 AM CDT 8:19 PM CDT
Civil Twilight 6:00 AM CDT 8:52 PM CDT
Nautical Twilight 5:20 AM CDT 9:33 PM CDT
Astronomical Twilight 4:36 AM CDT 10:17 PM CDT
Moon 11:39 AM CDT (4/17) 2:07 AM CDT (4/17)
Length of Visible Light 14h 52m
Length of Day
13h 46m
Waxing Crescent, 42% of the Moon is Illuminated
Apr 17
Waxing Crescent
Apr 18
First Quarter
Apr 25
Full
May 2
Last Quarter
May 9
New

Hourly Weather History & Observations

Time (CDT) Temp. Windchill Dew Point Humidity Pressure Visibility Wind Dir Wind Speed Gust Speed Precip Events Conditions
12:15 AM 30.2 °F 26.7 °F 28.4 °F 93% 30.38 in 10.0 mi North 3.5 mph - N/A   Overcast
12:34 AM 30.2 °F 26.7 °F 28.4 °F 93% 30.38 in 10.0 mi NW 3.5 mph - N/A   Overcast
12:54 AM 30.2 °F 25.4 °F 28.4 °F 93% 30.38 in 10.0 mi NNW 4.6 mph - N/A   Overcast
1:15 AM 30.2 °F 25.4 °F 28.4 °F 93% 30.38 in 10.0 mi NW 4.6 mph - N/A   Overcast
1:34 AM 30.2 °F 25.4 °F 28.4 °F 93% 30.38 in 10.0 mi NW 4.6 mph - N/A   Overcast
1:54 AM 30.2 °F 25.4 °F 28.4 °F 93% 30.38 in 10.0 mi NW 4.6 mph - N/A   Overcast
2:15 AM 30.2 °F 23.4 °F 28.4 °F 93% 30.38 in 10.0 mi NW 6.9 mph - N/A   Overcast
2:34 AM 30.2 °F 24.3 °F 28.4 °F 93% 30.38 in 10.0 mi NW 5.8 mph - N/A   Overcast
2:54 AM 30.2 °F 24.3 °F 28.4 °F 93% 30.39 in 10.0 mi WNW 5.8 mph - N/A   Overcast
3:15 AM 30.2 °F 24.3 °F 28.4 °F 93% 30.37 in 10.0 mi NNW 5.8 mph - N/A   Overcast
3:34 AM 30.2 °F 24.3 °F 28.4 °F 93% 30.36 in 10.0 mi North 5.8 mph - N/A   Overcast
3:54 AM 30.2 °F 22.6 °F 28.4 °F 93% 30.36 in 10.0 mi North 8.1 mph - N/A   Overcast
4:15 AM 30.2 °F 23.4 °F 28.4 °F 93% 30.36 in 10.0 mi North 6.9 mph - N/A   Overcast
4:34 AM 30.2 °F 23.4 °F 28.4 °F 93% 30.37 in 10.0 mi NNW 6.9 mph - N/A   Overcast
4:55 AM 30.2 °F 23.4 °F 28.4 °F 93% 30.37 in 10.0 mi North 6.9 mph - N/A   Overcast
5:15 AM 30.2 °F 24.3 °F 28.4 °F 93% 30.36 in 10.0 mi North 5.8 mph - N/A   Overcast
5:34 AM 30.2 °F - 28.4 °F 93% 30.36 in 10.0 mi Calm Calm - N/A   Overcast
5:55 AM 30.2 °F - 28.4 °F 93% 30.36 in 7.0 mi Calm Calm - N/A Snow Light Snow
6:15 AM 30.2 °F - 28.4 °F 93% 30.35 in 7.0 mi Calm Calm - N/A   Mostly Cloudy
6:34 AM 30.2 °F - 28.4 °F 93% 30.34 in 3.0 mi Calm Calm - N/A Snow Light Snow
6:55 AM 30.2 °F - 28.4 °F 93% 30.33 in 1.8 mi Calm Calm - N/A   Overcast
7:15 AM 30.2 °F - 28.4 °F 93% 30.32 in 1.8 mi Calm Calm - N/A   Overcast
7:34 AM 30.2 °F - 28.4 °F 93% 30.31 in 1.2 mi Calm Calm - N/A   Overcast
7:55 AM 30.2 °F - 28.4 °F 93% 30.32 in 1.8 mi Calm Calm - N/A   Overcast
8:15 AM 30.2 °F - 28.4 °F 93% 30.32 in 1.8 mi Calm Calm - 0.01 in Snow Light Snow
8:34 AM 30.2 °F - 30.2 °F 100% 30.32 in 2.0 mi Calm Calm - 0.01 in   Mostly Cloudy
9:14 AM 30.2 °F - 30.2 °F 100% 30.33 in 1.0 mi Calm Calm - N/A   Overcast
9:34 AM 30.2 °F - 30.2 °F 100% 30.33 in 0.8 mi Calm Calm - N/A   Overcast
9:55 AM 30.2 °F - 30.2 °F 100% 30.34 in 1.0 mi Calm Calm - N/A Snow Light Snow
10:14 AM 32.0 °F - 30.2 °F 93% 30.33 in 0.8 mi Calm Calm - N/A Snow Light Snow
10:34 AM 33.8 °F - 32.0 °F 93% 30.32 in 1.0 mi Calm Calm - 0.01 in Snow Light Snow
10:55 AM 32.0 °F 28.7 °F 30.2 °F 93% 30.31 in 1.2 mi NNW 3.5 mph - N/A Snow Light Snow
11:14 AM 32.0 °F - 30.2 °F 93% 30.31 in 1.5 mi Calm Calm - N/A Snow Light Snow
11:34 AM 33.8 °F - 32.0 °F 93% 30.32 in 2.5 mi Calm Calm - N/A Snow Light Snow
11:55 AM 33.8 °F - 32.0 °F 93% 30.31 in 3.0 mi Calm Calm - N/A Snow Light Snow
12:14 PM 33.8 °F - 32.0 °F 93% 30.30 in 5.0 mi Calm Calm - N/A   Overcast
12:34 PM 33.8 °F 30.8 °F 32.0 °F 93% 30.30 in 5.0 mi NNW 3.5 mph - N/A   Mostly Cloudy
12:55 PM 35.6 °F 31.7 °F 32.0 °F 87% 30.29 in 10.0 mi NNW 4.6 mph - N/A   Mostly Cloudy
1:14 PM 35.6 °F 30.7 °F 33.8 °F 93% 30.27 in 10.0 mi North 5.8 mph - N/A   Mostly Cloudy
1:35 PM 35.6 °F 30.7 °F 32.0 °F 87% 30.26 in 10.0 mi North 5.8 mph - N/A   Mostly Cloudy
1:55 PM 35.6 °F 29.9 °F 32.0 °F 87% 30.26 in 10.0 mi North 6.9 mph - N/A   Overcast
2:14 PM 35.6 °F 30.7 °F 32.0 °F 87% 30.25 in 10.0 mi North 5.8 mph - N/A   Overcast
2:35 PM 35.6 °F 29.9 °F 32.0 °F 87% 30.24 in 10.0 mi North 6.9 mph - N/A   Overcast
2:55 PM 35.6 °F 29.9 °F 32.0 °F 87% 30.23 in 10.0 mi North 6.9 mph - N/A   Overcast
3:35 PM 35.6 °F 28.6 °F 33.8 °F 93% 30.22 in 10.0 mi North 9.2 mph - N/A   Overcast
3:54 PM 35.6 °F 29.2 °F 32.0 °F 87% 30.21 in 10.0 mi North 8.1 mph - N/A   Overcast
4:14 PM 35.6 °F 28.6 °F 32.0 °F 87% 30.21 in 10.0 mi North 9.2 mph - N/A   Overcast
4:35 PM 35.6 °F 28.6 °F 32.0 °F 87% 30.20 in 10.0 mi North 9.2 mph - N/A   Overcast
4:54 PM 35.6 °F 29.2 °F 32.0 °F 87% 30.20 in 10.0 mi North 8.1 mph - N/A   Overcast
5:15 PM 35.6 °F 28.6 °F 32.0 °F 87% 30.20 in 10.0 mi North 9.2 mph - N/A   Overcast
5:35 PM 35.6 °F 28.6 °F 32.0 °F 87% 30.20 in 10.0 mi North 9.2 mph - N/A   Mostly Cloudy
5:54 PM 35.6 °F 29.9 °F 32.0 °F 87% 30.20 in 10.0 mi North 6.9 mph - N/A   Scattered Clouds
6:15 PM 33.8 °F 25.8 °F 32.0 °F 93% 30.20 in 5.0 mi North 10.4 mph - N/A Snow Light Snow
6:35 PM 33.8 °F 26.4 °F 32.0 °F 93% 30.19 in 4.0 mi North 9.2 mph - N/A Snow Light Snow
6:54 PM 33.8 °F 25.8 °F 32.0 °F 93% 30.19 in 4.0 mi North 10.4 mph - N/A Snow Light Snow
7:15 PM 33.8 °F 25.3 °F 30.2 °F 87% 30.19 in 7.0 mi North 11.5 mph - N/A Snow Light Snow
7:34 PM 33.8 °F 25.8 °F 30.2 °F 87% 30.19 in 5.0 mi North 10.4 mph - N/A Snow Light Snow
7:54 PM 33.8 °F 25.3 °F 30.2 °F 87% 30.20 in 7.0 mi North 11.5 mph - N/A Snow Light Snow
8:14 PM 33.8 °F 24.3 °F 30.2 °F 87% 30.18 in 10.0 mi North 13.8 mph - N/A   Mostly Cloudy
8:34 PM 33.8 °F 24.8 °F 30.2 °F 87% 30.18 in 10.0 mi North 12.7 mph - N/A   Scattered Clouds
8:55 PM 32.0 °F 22.5 °F 28.4 °F 87% 30.18 in 10.0 mi North 12.7 mph - N/A   Mostly Cloudy
9:14 PM 32.0 °F 22.1 °F 28.4 °F 87% 30.18 in 10.0 mi North 13.8 mph - N/A   Overcast
9:34 PM 32.0 °F 21.2 °F 28.4 °F 87% 30.18 in 10.0 mi North 16.1 mph - N/A   Overcast
9:55 PM 30.2 °F 19.3 °F 28.4 °F 93% 30.18 in 10.0 mi North 15.0 mph - N/A   Mostly Cloudy
10:14 PM 30.2 °F 19.8 °F 28.4 °F 93% 30.18 in 10.0 mi North 13.8 mph - N/A   Overcast
10:35 PM 30.2 °F 20.2 °F 28.4 °F 93% 30.17 in 10.0 mi North 12.7 mph - N/A   Overcast
10:55 PM 30.2 °F 20.2 °F 28.4 °F 93% 30.16 in 7.0 mi North 12.7 mph - N/A Snow Light Snow
11:14 PM 30.2 °F 20.8 °F 28.4 °F 93% 30.15 in 5.0 mi North 11.5 mph - N/A Snow Light Snow
11:35 PM 30.2 °F 21.3 °F 28.4 °F 93% 30.15 in 7.0 mi North 10.4 mph - N/A Snow Light Snow
11:55 PM 30.2 °F 21.9 °F 28.4 °F 93% 30.15 in 4.0 mi North 9.2 mph - N/A   Overcast